[TLELIST] Archives

 

[list_settings.list_name] Current TLEs

May 6th 2009 PST

HST 1 20580U 90037B 09126.01632982 .00000301 00000-0 10357-4 0 3812 2 20580 028.4690 017.4997 0003974 212.0697 147.9656 15.00480368843517 ISS (ZARYA) 1 25544U 98067A 09124.90846065 +.00007201 +00000-0 +57012-4 0 07957 2 25544 051.6392 168.8409 0009145 325.2378 031.6545 15.72576788599130 CXO 1 25867U 99040B 09124.20833333 +.00000451 +00000-0 +10000-3 0 03203 2 25867 065.2547 070.6421 7440340 276.1491 001.8577 00.37807416004841 ____________________________________________________________________ These 2-Line ...Continue Reading

[list_settings.list_name] Current TLEs

May 5th 2009 PST

HST 1 20580U 90037B 09124.88558408 .00000279 00000-0 86343-5 0 3807 2 20580 028.4691 024.8750 0003996 201.1661 158.8762 15.00479900843341 ISS (ZARYA) 1 25544U 98067A 09125.18452131 .00006773 00000-0 53896-4 0 7965 2 25544 051.6392 167.4257 0009110 326.3108 154.4835 15.72578807599186 CXO 1 25867U 99040B 09124.20833333 +.00000451 +00000-0 +10000-3 0 03203 2 25867 065.2547 070.6421 7440340 276.1491 001.8577 00.37807416004841 ____________________________________________________________________ These 2-Line ...Continue Reading

[list_settings.list_name] Current TLEs

May 4th 2009 PST

HST 1 20580U 90037B 09122.95666453 +.00000281 +00000-0 +88439-5 0 03938 2 20580 028.4689 037.4568 0003973 182.1657 177.8914 15.00479387843050 ISS (ZARYA) 1 25544U 98067A 09122.87151620 +.00008002 +00000-0 +62918-4 0 07835 2 25544 051.6394 179.2779 0009131 317.8361 019.7035 15.72547345598814 CXO 1 25867U 99040B 09124.20833333 +.00000451 +00000-0 +10000-3 0 03203 2 25867 065.2547 070.6421 7440340 276.1491 001.8577 00.37807416004841 ____________________________________________________________________ These 2-Line ...Continue Reading

[list_settings.list_name] Current TLEs

May 3rd 2009 PST

HST 1 20580U 90037B 09121.95894748 +.00000283 +00000-0 +90262-5 0 03813 2 20580 028.4687 043.9645 0003917 171.6546 188.4107 15.00479109842901 ISS (ZARYA) 1 25544U 98067A 09121.74879828 +.00008183 +00000-0 +64287-4 0 07771 2 25544 051.6394 185.0296 0009050 313.3539 144.0496 15.72528795598643 CXO 1 25867U 99040B 09121.54166667 +.00000447 +00000-0 +10000-3 0 03199 2 25867 065.2465 070.7651 7434646 276.1561 358.7886 00.37805725004833 ____________________________________________________________________ These 2-Line ...Continue Reading

[list_settings.list_name] Current TLEs

May 2nd 2009 PST

HST 1 20580U 90037B 09121.89243294 .00000290 00000-0 95686-5 0 3789 2 20580 028.4687 044.3981 0003915 170.6891 189.3770 15.00479150842899 ISS (ZARYA) 1 25544U 98067A 09122.13064730 .00008206 00000-0 64434-4 0 7784 2 25544 051.6395 183.0729 0009087 314.9390 145.6135 15.72535765598704 CXO 1 25867U 99040B 09121.54166667 +.00000447 +00000-0 +10000-3 0 03199 2 25867 065.2465 070.7651 7434646 276.1561 358.7886 00.37805725004833 ____________________________________________________________________ These 2-Line ...Continue Reading

[list_settings.list_name] Current TLEs

May 1st 2009 PST

HST 1 20580U 90037B 09120.82820089 .00000300 00000-0 10300-4 0 3774 2 20580 028.4685 051.3398 0003901 159.8542 200.2206 15.00478951842732 ISS (ZARYA) 1 25544U 98067A 09120.90148148 .00009021 00000-0 70424-4 0 7729 2 25544 051.6396 189.3708 0009000 309.9180 027.5376 15.72517156598504 CXO 1 25867U 99040B 09118.91666667 +.00000436 +00000-0 +10000-3 0 03188 2 25867 065.2454 070.8642 7426088 276.1961 001.3771 00.37797247004829 ____________________________________________________________________ These 2-Line ...Continue Reading

[list_settings.list_name] Current TLEs

April 30th 2009 PST

HST 1 20580U 90037B 09118.96579441 +.00000283 +00000-0 +89818-5 0 03871 2 20580 028.4687 063.4903 0003893 141.1093 218.9776 15.00478469842456 ISS (ZARYA) 1 25544U 98067A 09120.46062699 .00009682 00000-0 70623-4 0 7685 2 25544 051.6391 191.6335 0009051 307.0149 053.0546 15.72506461598444 CXO 1 25867U 99040B 09118.91666667 +.00000436 +00000-0 +10000-3 0 03188 2 25867 065.2454 070.8642 7426088 276.1961 001.3771 00.37797247004829 ____________________________________________________________________ These 2-Line ...Continue Reading

[list_settings.list_name] Current TLEs

April 29th 2009 PST

HST 1 20580U 90037B 09119.23185231 .00000306 00000-0 10770-4 0 3766 2 20580 028.4685 061.7514 0003875 142.6819 217.4039 15.00478568842495 ISS (ZARYA) 1 25544U 98067A 09118.82643640 .00009928 00000-0 77165-4 0 7594 2 25544 051.6400 200.0022 0008705 300.2632 162.4789 15.72479717598188 CXO 1 25867U 99040B 09118.91666667 +.00000436 +00000-0 +10000-3 0 03188 2 25867 065.2454 070.8642 7426088 276.1961 001.3771 00.37797247004829 ____________________________________________________________________ These 2-Line ...Continue Reading

[list_settings.list_name] Current TLEs

April 28th 2009 PST

HST 1 20580U 90037B 09117.90156118 .00000329 00000-0 12543-4 0 3754 2 20580 028.4686 070.4316 0003845 130.1750 229.9180 15.00478468842298 ISS (ZARYA) 1 25544U 98067A 09116.96141204 +.00010349 +00000-0 +80374-4 0 07478 2 25544 051.6407 209.5575 0008588 291.7462 046.2557 15.72441757597887 CXO 1 25867U 99040B 09113.58333333 +.00000615 +00000-0 +10000-3 0 03175 2 25867 065.2142 071.0805 7421195 276.2496 355.2526 00.37809333004802 ____________________________________________________________________ These 2-Line ...Continue Reading

[list_settings.list_name] Current TLEs

April 27th 2009 PST

HST 1 20580U 90037B 09116.23869654 .00000349 00000-0 14127-4 0 3746 2 20580 028.4684 081.2771 0003806 112.1153 247.9841 15.00477996842047 ISS (ZARYA) 1 25544U 98067A 09117.10570332 .00010367 00000-0 80492-4 0 7485 2 25544 051.6407 208.8181 0008590 292.3815 142.9745 15.72445017597914 CXO 1 25867U 99040B 09113.58333333 +.00000615 +00000-0 +10000-3 0 03175 2 25867 065.2142 071.0805 7421195 276.2496 355.2526 00.37809333004802 ____________________________________________________________________ These 2-Line ...Continue Reading
  • This mailing list is a public mailing list - anyone may join or leave, at any time.
  • This mailing list is announce-only.

International Space Station (ISS) / Hubble Space Telescope (HST) / Chandra X-Ray Observatory Orbital Data via EMAIL

Privacy Policy:

Private list